#timestamp,LO_Frequency,Hit,StdDev 
1649433615.5,286047000.1,N
1649433635.3,286047000.6,N
1649433655.2,286047000.4,N
1649433675.0,286047000.0,N
1649433675.9,286047000.0,N
1649433695.8,286047000.6,N
1649433715.6,286046999.9,N
1649433735.4,286047000.8,N
1649433755.3,286047001.1,N
1649433775.1,286046996.8,N
1649433795.8,286046999.4,N
1649433815.7,286046999.5,N
1649433835.5,286047000.6,N
1649433855.4,286047000.7,N
1649433875.2,286046998.6,N
1649433895.0,286046998.5,N
1649433895.9,286046998.5,N
1649433915.8,286047000.7,N
1649433935.6,286046999.8,N
1649433955.4,286047000.2,N
1649433975.3,286046999.7,N
1649433995.1,286047001.9,N
1649434015.9,286047000.7,N
1649434035.7,286046998.3,N
1649434055.5,286047001.2,N
1649434075.4,286046999.7,N
1649434095.2,286047000.9,N
1649434115.0,286046998.5,N
1649434116.0,286046998.5,N
1649434135.8,286047000.4,N
1649434155.6,286046999.9,N
1649434175.5,286047001.2,N
1649434195.3,286046999.0,N
1649434215.1,286046998.1,N
1649434235.9,286046998.3,N
1649434255.7,286046998.1,N
1649434275.6,286047001.0,N
1649434295.4,286047000.3,N
1649434315.2,286047001.3,N
1649434335.1,286047003.5,N
1649434336.0,286047003.5,N
1649434355.8,286047004.4,Y
1649434375.6,286046999.4,P
1649434395.5,286046998.7,P
1649434415.3,286047000.1,N
1649434435.2,286047001.2,N
1649434455.9,286046999.7,N
1649434475.7,286047001.2,N
1649434495.6,286047000.4,N
1649434515.4,286046999.7,N
1649434535.2,286047000.9,N
1649434555.1,286047001.2,N
1649434556.0,286047001.2,N
1649434575.8,286046999.9,N
1649434595.7,286046999.8,N
1649434615.5,286047002.7,Y
1649434635.3,286047000.0,P
1649434655.2,286046999.9,N
1649434675.0,286047000.4,N
1649434675.9,286047000.4,N
1649434695.7,286047000.2,N
1649434715.6,286047000.4,N
1649434735.4,286047001.0,Y
1649434755.3,286046997.6,P
1649434775.1,286046997.4,N
1649434776.0,286046997.4,N
1649434795.8,286046999.1,N
1649434815.7,286046998.4,N
1649434835.5,286047001.2,N
1649434855.3,286047001.1,N
1649434875.2,286047002.7,N
1649434895.0,286047002.2,N
1649434895.9,286047002.2,N
1649434915.8,286046998.1,N
1649434935.6,286047001.1,N
1649434955.4,286047000.1,N
1649434975.3,286046998.4,N
1649434995.1,286046999.0,N
1649435015.8,286046999.2,N
1649435035.7,286046998.9,N
1649435055.5,286046998.3,N
1649435075.4,286047000.6,N
1649435095.2,286046998.7,N
1649435115.0,286046999.4,N
1649435115.9,286046999.4,N
1649435135.8,286046999.0,N
1649435155.6,286046999.0,N
1649435175.4,286046997.1,N
1649435195.3,286046997.2,N
1649435215.1,286046997.2,N
1649435235.9,286046995.9,N
1649435255.7,286046995.0,Y
1649435275.5,286046997.5,P
1649435295.4,286046997.1,P
1649435315.2,286046995.3,P
1649435335.1,286046995.6,Y
1649435336.0,286046995.6,P
1649435355.8,286047000.7,N
1649435375.6,286047000.3,N
1649435395.5,286047000.3,N
1649435415.3,286047001.2,N
1649435435.2,286047001.1,N
1649435455.9,286047001.1,N
1649435475.7,286046998.5,N
1649435495.6,286046998.1,N
1649435515.4,286046996.6,N
1649435535.2,286046996.5,N
1649435555.1,286046999.4,N
1649435556.0,286046999.4,N
1649435575.8,286046998.9,N
1649435595.7,286046998.9,N
1649435615.5,286047001.1,N
1649435635.3,286047000.9,N
1649435655.2,286046998.1,N
1649435675.9,286046999.3,N
1649435695.7,286046996.5,N
1649435715.6,286046995.0,N
1649435735.4,286046995.2,N
1649435755.3,286046995.7,N
1649435775.1,286046996.1,N
1649435795.8,286046995.2,N
1649435815.7,286046995.2,N
1649435835.5,286046998.0,N
1649435855.4,286046994.9,N
1649435875.2,286046995.3,N
1649435895.0,286046995.6,N
1649435896.0,286046995.6,N
1649435915.8,286046995.4,N
1649435935.6,286046995.4,N
1649435955.5,286046995.5,N
1649435975.3,286046995.5,N
1649435995.1,286046994.8,N
1649436015.9,286046992.8,Y
1649436035.7,286046994.6,P
1649436055.6,286046994.7,P
1649436075.4,286046992.1,P
1649436095.2,286046993.4,Y
1649436115.1,286046998.6,P
1649436116.0,286046998.6,N
1649436135.8,286046999.8,N
1649436155.6,286047000.6,N
1649436175.5,286046999.2,N
1649436195.3,286046998.8,N
1649436215.2,286047000.7,N
1649436235.9,286046998.1,N
1649436255.7,286047000.7,N
1649436275.6,286046998.7,N
1649436295.4,286046999.5,N
1649436315.2,286046996.6,N
1649436335.1,286046999.6,N
1649436336.0,286046999.6,N
1649436355.8,286046996.8,N
1649436375.7,286046997.3,N
1649436395.5,286046999.3,N
1649436415.3,286047000.7,N
1649436435.2,286047000.8,N
1649436455.0,286047001.1,N
1649436455.9,286047001.1,N
1649436475.8,286046998.3,N
1649436495.6,286046998.5,N
1649436515.4,286046998.1,N
1649436535.3,286046998.6,N
1649436555.1,286046998.8,N
1649436575.8,286046996.5,N
1649436595.7,286046997.4,N
1649436615.5,286046999.1,N
1649436635.3,286046999.4,N
1649436655.2,286046996.7,N
1649436675.0,286046996.1,N
1649436675.9,286046996.1,N
1649436695.8,286046995.1,Y
1649436715.6,286046997.2,P
1649436735.5,286046999.6,N
1649436755.3,286046999.5,N
1649436775.1,286046999.4,N
1649436795.9,286046999.4,N
1649436815.7,286046996.5,Y
1649436835.6,286047001.0,P
1649436855.4,286047000.7,N
1649436875.2,286046998.7,N
1649436895.1,286046999.3,N
1649436896.0,286046999.3,N
1649436915.8,286046996.6,Y
1649436935.7,286046996.6,P
1649436955.5,286046996.7,N
1649436975.3,286046998.9,N
1649436995.2,286046998.3,N
1649437015.9,286046996.9,N
1649437035.7,286046999.5,N
1649437055.6,286046999.2,N
1649437075.4,286046999.2,N
1649437095.2,286046999.4,N
1649437115.1,286046999.1,N
1649437116.0,286046999.1,N
1649437135.8,286046999.0,N
1649437155.7,286046999.1,N
1649437175.5,286046998.4,N
1649437195.3,286046998.5,N
